This is the latest recevied weather packets stored in our database for station/object EA2RCU-15. If no packets are shown the sender has not sent any weather packets the latest 10 day(s).
| Time | Temp. | Humidity | Pressure | Rain* | Wind** | Luminosity | Snow |
|---|---|---|---|---|---|---|---|
| 1777890904 | 16.11° C | 54% | 997 hPa | 0 mm | - | - | - |
| 1777890605 | 16.67° C | 51% | 997 hPa | 0 mm | - | - | - |
| 1777890305 | 17.22° C | 54% | 997 hPa | 0 mm | - | - | - |
| 1777890004 | 16.67° C | 57% | 997 hPa | 0 mm | - | - | - |
| 1777889705 | 16.11° C | 58% | 997 hPa | 0 mm | - | - | - |
| 1777889405 | 15.56° C | 59% | 997 hPa | 0 mm | - | - | - |
| 1777889104 | 16.11° C | 61% | 997 hPa | 0 mm | - | - | - |
| 1777888805 | 16.11° C | 65% | 997 hPa | 0 mm | - | - | - |
| 1777888504 | 15.56° C | 67% | 997 hPa | 0 mm | - | - | - |
| 1777888204 | 15° C | 68% | 997 hPa | 0 mm | - | - | - |
| 1777887905 | 15° C | 68% | 997 hPa | 0 mm | - | - | - |
| 1777887605 | 15° C | 71% | 997 hPa | 0 mm | - | - | - |
| 1777887305 | 15° C | 71% | 997 hPa | 0 mm | - | - | - |
| 1777887005 | 15° C | 71% | 997 hPa | 0 mm | - | - | - |
| 1777886704 | 15° C | 71% | 997 hPa | 0 mm | - | - | - |
| 1777886405 | 15° C | 72% | 997 hPa | 0 mm | - | - | - |
| 1777886105 | 15° C | 72% | 997 hPa | 0 mm | - | - | - |
| 1777885805 | 15° C | 73% | 997 hPa | 2.03 mm | - | - | - |
| 1777885504 | 15° C | 73% | 997 hPa | 2.03 mm | - | - | - |
| 1777885205 | 15° C | 74% | 997 hPa | 3.05 mm | - | - | - |
| 1777884904 | 15° C | 74% | 996 hPa | 4.06 mm | - | - | - |
| 1777884605 | 14.44° C | 76% | 996 hPa | 4.06 mm | - | - | - |
| 1777884304 | 14.44° C | 76% | 996 hPa | 5.08 mm | - | - | - |
| 1777884005 | 13.89° C | 76% | 997 hPa | 6.1 mm | - | - | - |
| 1777883704 | 13.89° C | 76% | 997 hPa | 6.1 mm | - | - | - |
* Rain latest hour (hover to see other rain measurements)
** Current wind speed in m/s (hover to see current wind gust speed)